QPF
0.04 0.01 0.00 0.00 0.01 0.02 0.03 0.06 0.04 0.02 0.02 0.01 0.00 0.00 0.00 0.00 0.00 0.00 0.00 0.00 0.00 0.00
0.02 0.02 0.02 0.00 0.00 0.01 0.03 0.03 0.01 0.02 0.00 0.00 0.00 0.00 0.00 0.00 0.00 0.00 0.00 0.00 0.00 0.00
0.02 0.03 0.01 0.00 0.00 0.00 0.02 0.00 0.01 0.03 0.02 0.00 0.00 0.00 0.00 0.00 0.00 0.00 0.00 0.00 0.00 0.00
0.10 0.02 0.03 0.03 0.05 0.04 0.01 0.00 0.00 0.02 0.04 0.03 0.01 0.00 0.00 0.00 0.00 0.00 0.00 0.00 0.00 0.00
0.06 0.06 0.02 0.00 0.01 0.02 0.03 0.01 0.05 0.02 0.00 0.04 0.07 0.04 0.05 0.03 0.01 0.01 0.00 0.00 0.00 0.00
0.01 0.00 0.00 0.00 0.00 0.00 0.01 0.04 0.03 0.07 0.07 0.01 0.03 0.06 0.05 0.07 0.07 0.05 0.03 0.01 0.00 0.00
0.00 0.00 0.00 0.00 0.00 0.00 0.01 0.01 0.00 0.03 0.04 0.04 0.00 0.00 0.00 0.04 0.08 0.08 0.06 0.03 0.03 0.05
0.00 0.00 0.00 0.00 0.00 0.01 0.01 0.00 0.00 0.00 0.01 0.04 0.03 0.01 0.00 0.00 0.06 0.07 0.09 0.08 0.06 0.06
0.00 0.00 0.00 0.00 0.01 0.01 0.00 0.00 0.00 0.00 0.00 0.00 0.01 0.00 0.01 0.01 0.01 0.04 0.05 0.06 0.06 0.03
0.00 0.00 0.00 0.00 0.00 0.03 0.05 0.04 0.01 0.03 0.02 0.00 0.00 0.00 0.00 0.00 0.01 0.02 0.01 0.01 0.03 0.02
0.00 0.01 0.01 0.00 0.00 0.00 0.00 0.00 0.00 0.00 0.02 0.02 0.00 0.00 0.00 0.01 0.01 0.01 0.01 0.00 0.00 0.00
0.02 0.02 0.01 0.00 0.00 0.00 0.00 0.00 0.00 0.00 0.02 0.04 0.03 0.03 0.03 0.01 0.01 0.00 0.00 0.00 0.00 0.00
0.00 0.01 0.00 0.00 0.00 0.00 0.00 0.00 0.00 0.00 0.00 0.00 0.00 0.00 0.01 0.00 0.00 0.00 0.00 0.00 0.00 0.00
0.00 0.00 0.00 0.00 0.00 0.00 0.00 0.00 0.01 0.01 0.00 0.00 0.00 0.00 0.00 0.00 0.00 0.00 0.00 0.00 0.00 0.00
MSLP
1021.16 1021.19 1021.35 1021.45 1021.44 1021.58 1021.68 1021.89 1022.01 1022.27 1022.50 1022.60 1022.78 1022.94 1023.07 1022.99 1022.97 1023.17 1023.30 1023.36 1023.27 1022.88
1021.14 1021.27 1021.39 1021.61 1021.61 1021.49 1021.55 1021.71 1021.81 1021.97 1022.29 1022.46 1022.65 1022.80 1022.98 1022.99 1023.09 1023.14 1023.27 1023.40 1023.37 1023.09
1020.94 1021.20 1021.35 1021.53 1021.54 1021.50 1021.34 1021.44 1021.69 1021.84 1021.94 1022.09 1022.36 1022.57 1022.88 1023.03 1023.06 1023.16 1023.18 1023.16 1023.25 1023.27
1020.64 1020.97 1021.18 1021.28 1021.30 1021.30 1021.35 1021.50 1021.70 1021.80 1021.94 1022.10 1022.28 1022.39 1022.67 1022.80 1023.04 1023.11 1023.12 1023.23 1023.22 1023.18
1020.68 1020.79 1020.83 1021.01 1021.10 1020.98 1021.21 1021.48 1021.65 1021.74 1021.90 1021.91 1022.11 1022.22 1022.64 1022.75 1022.73 1022.90 1022.94 1023.03 1023.12 1023.08
1020.73 1020.86 1020.83 1020.89 1020.93 1021.01 1021.12 1021.33 1021.37 1021.57 1021.77 1021.93 1022.04 1022.33 1022.52 1022.62 1022.68 1022.85 1022.90 1022.91 1022.92 1022.86
1020.92 1021.02 1021.14 1021.04 1020.89 1020.82 1020.72 1021.08 1021.32 1021.47 1021.67 1021.91 1021.92 1022.14 1022.46 1022.62 1022.65 1022.71 1022.72 1022.70 1022.59 1022.59
1021.21 1021.24 1021.24 1021.18 1020.98 1020.93 1020.82 1020.95 1021.17 1021.36 1021.65 1021.82 1021.84 1021.90 1022.51 1022.53 1022.50 1022.45 1022.43 1022.43 1022.35 1021.97
1021.32 1021.60 1021.65 1021.62 1021.35 1021.24 1021.30 1021.22 1021.29 1021.43 1021.67 1021.87 1022.02 1022.78 1022.57 1022.58 1022.22 1022.23 1022.23 1022.15 1021.98 1021.78
1021.36 1022.13 1021.89 1022.14 1021.89 1021.83 1021.80 1021.76 1021.61 1021.77 1022.02 1022.36 1022.69 1022.92 1022.64 1022.42 1021.97 1021.94 1021.92 1021.92 1021.78 1021.64
1022.03 1022.65 1022.37 1022.40 1022.21 1022.24 1022.27 1022.24 1022.10 1022.18 1022.33 1022.55 1022.91 1023.18 1023.07 1022.55 1021.97 1022.01 1021.97 1021.90 1021.77 1021.80
1022.88 1023.05 1022.94 1022.57 1022.89 1022.72 1022.66 1022.64 1022.59 1022.70 1022.90 1022.99 1023.28 1023.31 1023.11 1022.72 1022.35 1022.06 1022.11 1022.04 1021.77 1022.18
1023.44 1023.13 1023.23 1023.47 1023.54 1023.47 1023.11 1023.19 1022.91 1022.93 1023.40 1023.71 1023.86 1024.08 1023.88 1022.93 1022.88 1022.77 1022.59 1022.62 1022.84 1023.13
1024.02 1023.81 1023.92 1023.96 1023.93 1023.81 1023.53 1023.36 1023.38 1023.73 1024.00 1024.39 1024.67 1024.52 1024.48 1024.44 1023.75 1023.57 1023.11 1022.64 1022.78 1022.82
Thickness
5757 5759 5760 5760 5761 5761 5761 5760 5760 5760 5759 5759 5759 5759 5760 5762 5764 5764 5766 5767 5769 5774
5754 5756 5757 5758 5759 5761 5761 5761 5761 5761 5760 5760 5760 5760 5761 5762 5763 5765 5766 5767 5768 5772
5754 5754 5756 5757 5759 5760 5762 5762 5761 5762 5762 5764 5762 5761 5761 5761 5762 5764 5766 5768 5768 5770
5755 5755 5755 5757 5758 5760 5760 5760 5761 5761 5761 5761 5762 5763 5764 5764 5763 5763 5765 5766 5767 5769
5752 5755 5756 5757 5757 5759 5760 5759 5758 5760 5761 5764 5763 5763 5763 5764 5767 5766 5765 5766 5766 5767
5748 5750 5753 5756 5757 5757 5759 5758 5759 5759 5760 5762 5763 5762 5763 5764 5765 5764 5765 5766 5767 5768
5741 5743 5746 5750 5755 5757 5758 5758 5758 5759 5758 5758 5759 5761 5761 5762 5763 5763 5764 5764 5766 5767
5734 5737 5740 5744 5749 5753 5756 5757 5757 5756 5756 5756 5757 5760 5758 5759 5760 5762 5762 5763 5764 5765
5726 5727 5729 5733 5739 5744 5747 5750 5751 5752 5752 5752 5755 5751 5754 5755 5759 5759 5760 5761 5764 5765
5717 5714 5720 5722 5729 5732 5735 5738 5743 5744 5744 5743 5744 5745 5749 5750 5756 5757 5758 5759 5761 5763
5702 5700 5707 5714 5719 5721 5724 5727 5731 5734 5736 5736 5737 5738 5741 5745 5750 5751 5753 5754 5755 5757
5687 5688 5693 5700 5702 5710 5712 5714 5719 5722 5724 5725 5728 5729 5732 5736 5741 5744 5744 5746 5748 5750
5678 5686 5689 5692 5695 5697 5702 5702 5708 5711 5710 5710 5714 5716 5719 5723 5727 5730 5732 5733 5734 5735
5674 5679 5681 5683 5685 5689 5693 5695 5696 5695 5696 5696 5698 5703 5705 5706 5713 5715 5720 5724 5725 5728